TimeEDT,TemperatureF,Dew PointF,Humidity,Sea Level PressureIn,VisibilityMPH,Wind Direction,Wind SpeedMPH,Gust SpeedMPH,PrecipitationIn,Events,Conditions,WindDirDegrees,DateUTC
12:51 AM,70.0,52.0,53,29.99,10.0,WSW,4.6,-,N/A,,Clear,250,2013-04-10 04:51:00
1:51 AM,68.0,52.0,56,30.00,10.0,SW,3.5,-,N/A,,Clear,220,2013-04-10 05:51:00
2:51 AM,64.9,52.0,63,29.99,10.0,South,4.6,-,N/A,,Clear,190,2013-04-10 06:51:00
3:51 AM,64.9,52.0,63,29.99,10.0,Calm,Calm,-,N/A,,Scattered Clouds,0,2013-04-10 07:51:00
4:51 AM,64.9,52.0,63,29.97,10.0,SSE,3.5,-,N/A,,Clear,160,2013-04-10 08:51:00
5:51 AM,61.0,51.1,70,29.97,10.0,SSW,3.5,-,N/A,,Clear,210,2013-04-10 09:51:00
6:51 AM,61.0,51.1,70,29.99,10.0,Calm,Calm,-,N/A,,Scattered Clouds,0,2013-04-10 10:51:00
7:51 AM,63.0,52.0,67,29.99,10.0,SSW,5.8,-,N/A,,Mostly Cloudy,200,2013-04-10 11:51:00
8:51 AM,69.1,53.1,57,30.00,10.0,SSW,8.1,-,N/A,,Partly Cloudy,200,2013-04-10 12:51:00
9:51 AM,73.9,53.1,48,29.99,10.0,South,10.4,-,N/A,,Clear,190,2013-04-10 13:51:00
10:51 AM,79.0,55.0,44,29.99,10.0,SW,10.4,20.7,N/A,,Clear,230,2013-04-10 14:51:00
11:51 AM,82.0,55.9,41,29.99,10.0,West,15.0,25.3,N/A,,Clear,260,2013-04-10 15:51:00
12:51 PM,82.9,57.0,41,29.98,10.0,WSW,15.0,25.3,N/A,,Mostly Cloudy,240,2013-04-10 16:51:00
1:51 PM,82.9,55.9,39,29.96,10.0,SW,13.8,24.2,N/A,,Scattered Clouds,220,2013-04-10 17:51:00
2:51 PM,84.0,55.9,38,29.94,10.0,SW,10.4,20.7,N/A,,Partly Cloudy,220,2013-04-10 18:51:00
3:51 PM,86.0,55.9,36,29.90,10.0,SW,11.5,18.4,N/A,,Partly Cloudy,220,2013-04-10 19:51:00
4:51 PM,84.0,54.0,35,29.86,10.0,SW,12.7,20.7,N/A,,Mostly Cloudy,230,2013-04-10 20:51:00
5:51 PM,86.0,54.0,33,29.86,10.0,WSW,12.7,19.6,N/A,,Scattered Clouds,250,2013-04-10 21:51:00
6:51 PM,82.9,51.1,33,29.85,10.0,SW,11.5,17.3,N/A,,Clear,230,2013-04-10 22:51:00
7:51 PM,81.0,48.9,33,29.83,10.0,SW,8.1,-,N/A,,Clear,230,2013-04-10 23:51:00
8:51 PM,80.1,48.9,34,29.83,10.0,Calm,Calm,-,N/A,,Clear,0,2013-04-11 00:51:00
9:51 PM,79.0,48.9,35,29.83,10.0,Calm,Calm,-,N/A,,Clear,0,2013-04-11 01:51:00
10:51 PM,71.6,50.0,46,29.84,10.0,East,4.6,-,N/A,,Clear,100,2013-04-11 02:51:00
11:51 PM,69.1,51.1,53,29.80,10.0,East,3.5,-,N/A,,Clear,100,2013-04-11 03:51:00